EHI
0 0 0 0 0 0 0 0 0 0 0 0 0 0 0 0 0 0 0 0 0 0 0 0 0 0 0 0 0 0 0 0 0 0 0 0 0 0 0 0 0 0 0 0
0 0 0 0 0 0 0 0 0 0 0 0 0 0 0 0 0 0 0 0 0 0 0 0 0 0 0 0 0 0 0 0 0 0 0 0 0 0 0 0 0 0 0 0
0 0 0 0 0 0 0 0 0 0 0 0 0 0 0 0 0 0 0 0 0 0 0 0 0 0 0 0 0 0 0 0 0 0 0 0 0 0 0 0 0 0 0 0
0 0 0 0 0 0 0 0 0 0 0 0 0 0 0 0 0 0 0 0 0 0 0 0 0 0 0 0 0 0 0 0 0 0 0 0 0 0 0 0 0 0 0 0
0 0 0 0 0 0 0 0 0 0 0 0 0 0 0 0 0 0 0 0 0 0 0 0 0 0 0 0 0 0 0 0 0 0 0 0 0 0 0 0 0 0 0 0
0 0 0 0 0 0 0 0 0 0 0 0 0 0 0 0 0 0 0 0 0 0 0 0 0 0 0 0 0 0 0 0 0 0 0 0 0 0 0 0 0 0 0 0
0 0 0 0 0 0 0 0 0 0 0 0 0 0 0 0 0 0 0 0 0 0 0 0 0 0 0 0 0 0 0 0 0 0 0 0 0 0 0 0 0 0 0 0
0 0 0 0 0 0 0 0 0 0 0 0 0 0 0 0 0 0 0 0 0 0 0 0 0 0 0 0 0 0 0 0 0 0 0 0 0 0 0 0 0 0 0 0
0 0 0 0 0 0 0 0 0 0 0 0 0 0 0 0 0 0 0 0 0 0 0 0 0 0 0 0 0 0 0 0 0 0 0 0 0 0 0 0 0 0 0 0
0 0 0 0 0 0 0 0 0 0 0 0 0 0 0 0 0 0 0 0 0 0 0 0 0 0 0 0 0 0 0 0 0 0 0 0 0 0 0 0 0 0 0 0
0 0 0 0 0 0 0 0 0 0 0 0 0 0 0 0 0 0 0 0 0 0 0 0 0 0 0 0 0 0 0 0 0 0 0 0 0 0 0 0 0 0 0 0
0 0 0 0 0 0 0 0 0 0 0 0 0 0 0 0 0 0 0 0 0 0 0 0 0 0 0 0 0 0 0 0 0 0 0 0 0 0 0 0 0 0 0 0
0 0 0 0 0 0 0 0 0 0 0 0 0 0 0 0 0 0 0 0 0 0 0 0 0 0 0 0 0 0 0 0 0 0 0 0 0 0 0 0 0 0 0 0
0 0 0 0 0 0 0 0 0 0 0 0 0 0 0 0 0 0 0 0 0 0 0 0 0 0 0 0 0 0 0 0 0 0 0 0 0 0 0 0 0 0 0 0
0 0 0 0 0 0 0 0 0 0 0 0 0 0 0 0 0 0 0 0 0 0 0 0 0 0 0 0 0 0 0 0 0 0 0 0 0 0 0 0 0 0 0 0
0 0 0 0 0 0 0 0 0 0 0 0 0 0 0 0 0 0 0 0 0 0 0 0 0 0 0 0 0 0 0 0 0 0 0 0 0 0 0 0 0 0 0 0
0 0 0 0 0 0 0 0 0 0 0 0 0 0 0 0 0 0 0 0 0 0 0 0 0 0 0 0 0 0 0 0 0 0 0 0 0 0 0 0 0 0 0 0
0 0 0 0 0 0 0 0 0 0 0 0 0 0 0 0 0 0 0 0 0 0 0 0 0 0 0 0 0 0 0 0 0 0 0 0 0 0 0 0 0 0 0 0
0 0 0 0 0 0 0 0 0 0 0 0 0 0 0 0 0 0 0 0 0 0 0 0 0 0 0 0 0 0 0 0 0 0 0 0 0 0 0 0 0 0 0 0
0 0 0 0 0 0 0 0 0 0 0 0 0 0 0 0 0 0 0 0 0 0 0 0 0 0 0 0 0 0 0 0 0 0 0 0 0 0 0 0 0 0 0 0
0 0 0 0 0 0 0 0 0 0 0 0 0 0 0 0 0 0 0 0 0 0 0 0 0 0 0 0 0 0 0 0 0 0 0 0 0 0 0 0 0 0 0 0
0 0 0 0 0 0 0 0 0 0 0 0 0 0 0 0 0 0 0 0 0 0 0 0 0 0 0 0 0 0 0 0 0 0 0 0 0 0 0 0 0 0 0 0
0 0 0 0 0 0 0 0 0 0 0 0 0 0 0 0 0 0 0 0 0 0 0 0 0 0 0 0 0 0 0 0 0 0 0 0 0 0 0 0 0 0 0 0
0 0 0 0 0 0 0 0 0 0 0 0 0 0 0 0 0 0 0 0 0 0 0 0 0 0 0 0 0 0 0 0 0 0 0 0 0 0 0 0 0 0 0 0
0 0 0 0 0 0 0 0 0 0 0 0 0 0 0 0 0 0 0 0 0 0 0 0 0 0 0 0 0 0 0 0 0 0 0 0 0 0 0 0 0 0 0 0
0 0 0 0 0 0 0 0 0 0 0 0 0 0 0 0 0 0 0 0 0 0 0 0 0 0 0 0 0 0 0 0 0 0 0 0 0 0 0 0 0 0 0 0
0 0 0 0 0 0 0 0 0 0 0 0 0 0 0 0 0 0 0 0 0 0 0 0 0 0 0 0 0 0 0 0 0 0 0 0 0 0 0 0 0 0 0 0
Wind_Speed
5 6 4 5 6 4 2 3 4 5 6 8 9 10 10 9 9 9 9 9 9 8 7 7 6 6 5 4 3 2 2 2 2 3 3 3 3 3 4 4 4 4 5 5
5 3 3 4 6 5 4 4 4 6 7 7 9 8 9 10 9 9 10 10 9 8 8 7 7 6 6 4 3 2 2 2 2 1 1 2 2 3 3 3 3 4 4 4
4 5 4 3 3 3 3 4 5 6 6 9 9 10 10 10 9 9 10 10 9 8 8 7 7 6 6 5 4 2 2 2 2 1 1 2 2 3 3 3 3 3 4 4
3 3 3 2 3 3 4 4 5 5 7 8 9 10 9 8 8 10 11 11 10 8 8 8 7 6 6 5 3 2 2 2 2 1 1 1 2 3 3 3 3 3 3 3
2 3 4 2 1 3 4 5 4 5 8 9 9 8 5 6 9 10 11 11 9 8 8 7 7 6 6 4 3 2 2 3 2 2 2 2 2 2 2 3 3 3 3 3
2 3 4 2 3 5 4 4 3 6 8 9 8 5 6 10 12 12 12 10 9 8 7 7 7 6 5 4 3 3 3 3 3 3 2 3 3 2 2 2 3 2 2 2
3 4 4 2 4 2 3 4 5 6 7 7 5 6 9 12 12 11 11 11 10 8 6 6 7 6 5 5 5 5 4 4 3 2 2 2 2 2 2 2 3 3 2 2
2 4 3 2 0 2 3 5 5 6 6 7 8 9 10 10 11 11 10 10 9 7 6 6 6 6 5 5 6 5 4 3 3 2 2 1 1 1 2 3 3 3 3 2
4 3 2 1 2 3 3 4 5 6 7 7 9 9 10 10 10 10 10 9 7 7 7 6 6 5 5 6 5 5 4 3 3 2 1 1 1 1 2 2 2 3 3 3
4 6 5 4 4 5 4 5 6 7 7 7 8 9 10 9 9 9 9 7 6 6 7 7 7 6 5 6 5 4 3 3 3 2 2 1 0 1 1 2 2 3 3 3
5 6 6 5 5 5 5 6 6 7 7 7 7 8 8 8 8 8 7 6 6 6 6 7 7 7 6 6 5 4 3 3 3 2 2 1 1 1 0 1 1 2 3 3
5 4 4 4 3 4 5 6 7 7 7 7 6 7 8 7 6 6 6 6 6 6 6 7 7 7 7 6 5 4 3 2 2 2 1 1 1 1 3 1 2 1 0 1
5 3 4 6 5 5 5 6 6 6 6 7 6 6 6 6 5 5 6 6 6 6 6 7 7 7 7 6 5 4 3 2 2 2 1 1 0 0 1 2 3 2 1 1
5 4 5 5 4 4 4 5 5 5 5 5 5 5 5 5 5 5 5 6 6 6 6 6 6 7 7 6 5 5 4 3 2 2 1 1 1 0 0 0 1 1 1 1
5 5 5 5 4 4 4 4 4 5 5 5 5 5 5 5 6 6 6 5 5 5 6 6 6 7 7 6 5 4 4 2 2 2 2 1 1 1 0 0 0 0 0 1
3 3 4 5 5 4 4 4 4 5 5 5 5 5 5 5 5 6 5 5 5 6 6 6 6 7 7 6 5 4 3 4 3 2 1 1 1 0 0 0 0 0 0 0
3 3 4 4 5 5 4 4 4 5 5 5 5 6 5 5 5 5 5 5 5 5 5 6 6 7 6 5 5 3 3 3 4 2 1 1 1 1 1 1 1 1 1 1
5 5 5 5 5 5 5 4 4 5 5 5 5 5 5 5 5 6 6 6 5 5 5 6 6 6 5 5 4 3 3 3 2 2 2 1 1 1 1 1 1 1 1 0
4 4 4 4 4 4 4 4 5 5 5 5 5 5 5 5 5 5 5 5 5 5 6 6 9 7 6 6 5 3 3 3 2 2 2 2 1 1 1 1 1 1 1 1
3 3 3 3 3 3 4 4 4 4 4 4 4 5 5 5 5 5 5 4 4 4 6 7 7 5 5 5 6 3 3 3 3 2 2 2 2 1 1 1 1 1 1 1
3 3 3 3 3 3 3 4 4 5 5 4 4 5 5 5 5 4 4 4 5 5 6 7 5 5 4 5 5 3 3 3 3 3 2 2 2 2 2 2 2 2 2 1
3 3 3 3 3 3 3 3 3 4 4 4 4 4 5 5 5 4 4 4 5 7 6 4 4 6 7 6 3 3 3 3 3 3 3 2 2 2 2 2 2 2 2 2
3 3 3 3 3 4 4 3 3 4 4 4 5 5 5 5 4 4 4 4 4 7 6 4 6 9 8 4 3 3 3 3 3 3 3 3 3 3 2 3 2 2 2 2
3 3 3 3 2 3 3 4 4 4 4 5 4 5 4 4 4 3 4 6 8 8 5 6 9 9 7 3 3 3 3 3 3 3 3 3 3 3 3 3 3 3 3 3
2 2 2 2 2 3 4 4 4 4 4 4 4 4 4 3 4 4 5 5 7 7 5 6 8 8 5 3 3 3 3 3 4 4 3 3 3 3 3 3 3 3 3 3
2 3 3 3 3 3 3 3 3 3 3 4 4 3 3 3 4 4 4 5 6 7 5 4 5 5 4 4 4 4 4 4 4 4 4 4 4 4 3 3 4 3 3 3
2 2 2 2 2 2 2 3 3 3 3 4 4 4 4 4 4 4 5 4 4 4 4 4 4 4 4 4 4 4 4 3 4 4 4 4 4 4 4 4 4 3 3 3
Wind_Direction
280 300 314 323 326 334 317 291 282 297 303 324 334 332 330 336 343 347 351 350 349 347 344 341 341 340 336 330 327 316 288 256 246 231 210 201 197 194 192 191 194 194 194 197
284 290 314 332 336 325 312 305 291 297 301 330 328 330 334 338 341 344 344 344 341 340 340 337 336 331 330 327 324 317 297 278 273 259 218 200 194 190 190 188 191 193 198 198
284 317 290 296 320 308 305 311 297 295 315 332 330 333 329 329 334 337 337 335 334 333 334 330 327 323 321 320 315 308 298 292 283 266 243 224 200 191 193 188 183 194 203 201
292 309 275 48 54 334 301 308 310 299 316 325 323 321 321 328 337 337 336 333 330 328 329 326 326 326 323 320 316 309 307 308 293 280 268 252 219 202 198 192 191 194 199 201
272 280 276 272 337 324 297 304 323 310 315 323 324 318 326 347 342 331 327 326 322 323 324 326 331 332 327 325 325 317 311 310 308 285 263 256 243 223 203 187 189 188 189 189
249 271 274 357 351 325 273 280 355 329 322 328 332 319 330 341 333 328 327 327 325 326 329 333 335 334 330 328 332 326 316 306 296 282 256 246 246 232 212 189 182 176 175 182
254 257 274 350 330 287 254 327 343 325 320 323 315 299 310 318 321 323 324 325 325 328 334 336 336 336 334 335 335 325 318 312 309 299 276 258 251 231 198 179 170 166 160 160
232 244 272 41 65 232 306 329 317 315 315 311 303 303 309 315 318 322 325 328 330 334 336 338 342 340 334 336 332 331 327 326 332 329 312 277 240 209 187 175 169 162 152 146
226 253 349 196 244 286 309 300 307 310 310 307 303 306 311 313 316 320 323 326 333 337 335 339 344 342 333 331 334 338 342 344 345 342 323 287 218 182 177 177 171 164 162 161
255 264 273 269 271 289 289 289 299 302 304 303 298 303 308 312 316 320 322 326 333 338 338 340 344 344 337 334 336 340 344 345 348 352 351 354 329 190 179 178 174 169 171 170
256 277 291 268 262 278 290 297 301 304 303 300 297 300 305 308 312 315 319 325 331 336 336 337 340 342 341 341 341 342 343 349 353 355 356 14 20 13 250 209 198 186 184 179
245 251 249 280 289 288 291 296 299 301 304 304 300 297 301 302 307 314 320 328 333 336 336 336 339 340 342 343 343 344 344 348 349 351 347 357 54 55 46 61 57 69 191 195
258 281 272 283 292 290 289 295 299 297 297 300 303 301 303 305 310 316 323 331 331 331 332 333 337 339 341 342 342 342 339 336 335 336 332 325 324 128 79 63 70 80 103 164
250 263 273 276 285 293 292 297 300 303 305 306 310 314 314 315 317 322 325 325 324 328 331 333 336 337 338 339 339 340 337 335 329 326 323 315 301 286 211 156 107 65 62 115
247 245 260 282 291 293 297 302 308 311 317 321 322 322 323 322 322 321 322 323 326 330 333 335 336 334 336 336 336 334 331 330 331 327 324 320 321 321 282 170 167 131 78 96
257 255 261 269 278 290 298 299 300 307 314 317 322 322 320 317 315 318 325 330 332 330 329 330 329 328 330 333 333 330 331 335 328 318 319 322 322 313 286 209 206 211 214 234
234 258 263 272 278 283 285 286 289 296 304 309 313 315 317 319 320 324 328 329 325 318 320 324 324 324 328 332 331 328 325 326 328 316 314 315 315 304 282 247 237 247 265 266
238 251 256 263 269 275 284 291 294 298 300 303 309 314 317 317 315 317 321 324 326 326 330 331 328 328 331 332 329 323 320 319 321 318 317 316 316 310 300 283 267 269 288 317
255 259 264 268 268 268 276 286 294 298 301 305 307 308 308 308 309 313 319 323 324 325 330 332 332 333 331 335 334 323 321 321 322 320 317 317 319 316 306 294 284 280 271 263
263 268 272 279 283 279 283 291 298 301 304 305 303 305 309 315 317 317 317 311 308 311 316 322 324 323 326 330 331 320 318 316 315 315 312 312 311 305 301 294 282 275 269 264
269 274 275 279 288 293 294 298 298 299 304 303 297 297 302 308 314 314 310 310 317 319 317 321 323 323 323 323 320 316 317 317 314 311 308 303 300 300 297 293 288 282 279 275
270 271 275 280 285 292 301 303 297 296 300 300 298 298 301 306 310 307 295 292 310 319 319 314 318 322 325 323 319 322 321 318 313 309 304 301 294 289 287 288 283 283 278 272
269 268 272 276 279 289 303 304 300 298 296 297 296 296 295 297 298 298 303 308 309 314 317 311 318 323 327 328 325 320 317 313 310 307 304 300 295 290 286 285 282 279 277 277
266 269 274 282 286 289 298 304 304 300 294 290 287 287 291 295 293 284 289 305 312 313 311 313 320 325 330 323 316 312 308 305 303 300 298 296 294 291 287 284 282 280 276 275
259 261 263 266 269 276 287 299 303 303 303 299 298 296 290 284 284 295 298 299 307 312 307 310 318 323 323 310 306 302 300 297 298 296 293 293 291 288 285 284 280 278 277 277
250 255 258 258 263 277 287 291 293 300 304 304 305 304 300 295 291 293 295 299 301 306 306 304 307 311 306 300 298 297 296 298 299 299 295 292 290 288 284 283 284 282 282 282
250 258 262 267 267 271 276 277 282 289 293 294 298 301 302 301 299 299 299 299 302 301 300 301 302 300 298 297 295 293 292 292 292 291 291 289 288 286 286 285 283 283 283 281